STEP CUBE LAB (43138 NORAD) Tracking and Keplerian Element Data

This shows tracking and keplerian element data for the satellite.

Feedback or suggestion? Click here.




ElementValue
Catalog43138
NameSTEP CUBE LAB
Epoch Orbit428
Epoch Day40.46758121
Epoch Year2018
RAAN102.726
Inclination97.5516
Eccentricity0.0009592
Argument of Perigee179.3111
Mean Anonmoly180.814
Mean Motion15.22475287
Decay Rate1.531E-05
L11 43138U 18004AD 18040.46758121 .00001531 00000-0 69201-4 0 9991
L22 43138 97.5516 102.7260 0009592 179.3111 180.8140 15.22475287 4289



Live tracking and technical data element details for STEP CUBE LAB (NORAD 43138). STEP CUBE LAB can be tracked NOW for your location showing map with azimuth and elevation plus other details from your city location.







IsCatalogInMostPopularTable: catalog: 43138, numindb: 498
Update: records affected: 1



GetName: 43138 STEP CUBE LAB

Hit Count: updated at: Thu, 16 Apr 2026 04:06:27 GMT